Time,TemperatureF,DewpointF,PressureIn,WindDirection,WindDirectionDegrees,WindSpeedMPH,WindSpeedGustMPH,Humidity,HourlyPrecipIn,Conditions,Clouds,dailyrainin,SolarRadiationWatts/m^2,SoftwareType,DateUTC
2013-01-16 00:03:00,58.0,57.0,30.31,SSE,151,5.0,10.0,97,0.00,,,0.00,0.000000,,2013-01-16 05:03:00,
2013-01-16 00:12:00,58.0,57.0,30.31,SSE,151,5.0,10.0,97,0.00,,,0.00,0.000000,,2013-01-16 05:12:00,
2013-01-16 00:33:00,57.0,57.0,30.31,SSE,168,3.0,10.0,99,0.00,,,0.00,0.000000,,2013-01-16 05:33:00,
2013-01-16 00:42:00,57.0,57.0,30.31,SSE,168,3.0,10.0,99,0.00,,,0.00,0.000000,,2013-01-16 05:42:00,
2013-01-16 00:53:00,57.0,57.0,30.31,SSE,168,3.0,10.0,99,0.00,,,0.00,0.000000,,2013-01-16 05:53:00,
2013-01-16 01:03:00,57.0,57.0,30.31,SSE,168,3.0,10.0,99,0.00,,,0.00,0.000000,,2013-01-16 06:03:00,
2013-01-16 01:12:00,57.0,57.0,30.31,SSE,168,3.0,10.0,99,0.00,,,0.00,0.000000,,2013-01-16 06:12:00,
2013-01-16 01:33:00,59.0,59.0,30.28,SSE,154,5.0,10.0,99,0.00,,,0.00,0.000000,,2013-01-16 06:33:00,
2013-01-16 01:43:00,59.0,59.0,30.28,SSE,154,5.0,10.0,99,0.00,,,0.00,0.000000,,2013-01-16 06:43:00,
2013-01-16 01:53:00,59.0,59.0,30.28,SSE,154,5.0,10.0,99,0.00,,,0.00,0.000000,,2013-01-16 06:53:00,
2013-01-16 02:02:00,59.0,59.0,30.28,SSE,154,5.0,10.0,99,0.00,,,0.00,0.000000,,2013-01-16 07:02:00,
2013-01-16 02:12:00,59.0,59.0,30.28,SSE,154,5.0,10.0,99,0.00,,,0.00,0.000000,,2013-01-16 07:12:00,
2013-01-16 02:33:00,59.0,59.0,30.30,SE,126,2.0,9.0,100,0.00,,,0.00,0.000000,,2013-01-16 07:33:00,
2013-01-16 02:42:00,59.0,59.0,30.30,SE,126,2.0,9.0,100,0.00,,,0.00,0.000000,,2013-01-16 07:42:00,
2013-01-16 02:52:00,59.0,59.0,30.30,SE,126,2.0,9.0,100,0.00,,,0.00,0.000000,,2013-01-16 07:52:00,
2013-01-16 03:03:00,59.0,59.0,30.30,SE,126,2.0,9.0,100,0.00,,,0.00,0.000000,,2013-01-16 08:03:00,
2013-01-16 03:12:00,59.0,59.0,30.30,SE,126,2.0,9.0,100,0.00,,,0.00,0.000000,,2013-01-16 08:12:00,
2013-01-16 03:42:00,60.0,60.0,30.27,South,169,3.0,5.0,100,0.00,,,0.00,0.000000,,2013-01-16 08:42:00,
2013-01-16 03:53:00,60.0,60.0,30.27,South,169,3.0,5.0,100,0.00,,,0.00,0.000000,,2013-01-16 08:53:00,
2013-01-16 04:02:00,60.0,60.0,30.27,South,169,3.0,5.0,100,0.00,,,0.00,0.000000,,2013-01-16 09:02:00,
2013-01-16 04:12:00,60.0,60.0,30.27,South,169,3.0,5.0,100,0.00,,,0.00,0.000000,,2013-01-16 09:12:00,
2013-01-16 04:33:00,57.0,57.0,30.26,SSW,192,2.0,6.0,100,0.00,,,0.00,0.000000,,2013-01-16 09:33:00,
2013-01-16 04:43:00,57.0,57.0,30.26,SSW,192,2.0,6.0,100,0.00,,,0.00,0.000000,,2013-01-16 09:43:00,
2013-01-16 04:53:00,57.0,57.0,30.26,SSW,192,2.0,6.0,100,0.00,,,0.00,0.000000,,2013-01-16 09:53:00,
2013-01-16 05:03:00,57.0,57.0,30.26,SSW,192,2.0,6.0,100,0.00,,,0.00,0.000000,,2013-01-16 10:03:00,
2013-01-16 05:12:00,57.0,57.0,30.26,SSW,192,2.0,6.0,100,0.00,,,0.00,0.000000,,2013-01-16 10:12:00,
2013-01-16 05:33:00,59.0,59.0,30.25,South,191,4.0,9.0,100,0.00,,,0.00,0.000000,,2013-01-16 10:33:00,
2013-01-16 05:43:00,59.0,59.0,30.25,South,191,4.0,9.0,100,0.00,,,0.00,0.000000,,2013-01-16 10:43:00,
2013-01-16 05:53:00,59.0,59.0,30.25,South,191,4.0,9.0,100,0.00,,,0.00,0.000000,,2013-01-16 10:53:00,
2013-01-16 06:02:00,59.0,59.0,30.25,South,191,4.0,9.0,100,0.00,,,0.00,0.000000,,2013-01-16 11:02:00,
2013-01-16 06:12:00,59.0,59.0,30.25,South,191,4.0,9.0,100,0.00,,,0.00,0.000000,,2013-01-16 11:12:00,
2013-01-16 06:33:00,61.0,61.0,30.24,South,175,4.0,8.0,100,0.00,,,0.00,0.000000,,2013-01-16 11:33:00,
2013-01-16 06:43:00,61.0,61.0,30.24,South,175,4.0,8.0,100,0.00,,,0.00,0.000000,,2013-01-16 11:43:00,
2013-01-16 06:53:00,61.0,61.0,30.24,South,175,4.0,8.0,100,0.00,,,0.00,0.000000,,2013-01-16 11:53:00,
2013-01-16 07:03:00,61.0,61.0,30.24,South,175,4.0,8.0,100,0.00,,,0.00,0.000000,,2013-01-16 12:03:00,
2013-01-16 07:13:00,61.0,61.0,30.24,South,175,4.0,8.0,100,0.00,,,0.00,0.000000,,2013-01-16 12:13:00,
2013-01-16 07:33:00,57.0,57.0,30.26,SSW,200,1.0,9.0,100,0.00,,,0.00,0.000000,,2013-01-16 12:33:00,
2013-01-16 07:43:00,57.0,57.0,30.26,SSW,200,1.0,9.0,100,0.00,,,0.00,0.000000,,2013-01-16 12:43:00,
2013-01-16 07:53:00,57.0,57.0,30.26,SSW,200,1.0,9.0,100,0.00,,,0.00,0.000000,,2013-01-16 12:53:00,
2013-01-16 08:03:00,57.0,57.0,30.26,SSW,200,1.0,9.0,100,0.00,,,0.00,0.000000,,2013-01-16 13:03:00,
2013-01-16 08:12:00,57.0,57.0,30.26,SSW,200,1.0,9.0,100,0.00,,,0.00,0.000000,,2013-01-16 13:12:00,
2013-01-16 08:43:00,63.0,63.0,30.27,SSW,200,2.0,5.0,100,0.00,,,0.00,23.000000,,2013-01-16 13:43:00,
2013-01-16 08:53:00,63.0,63.0,30.27,SSW,200,2.0,5.0,100,0.00,,,0.00,23.000000,,2013-01-16 13:53:00,
2013-01-16 09:03:00,63.0,63.0,30.27,SSW,200,2.0,5.0,100,0.00,,,0.00,23.000000,,2013-01-16 14:03:00,
2013-01-16 09:12:00,63.0,63.0,30.27,SSW,200,2.0,5.0,100,0.00,,,0.00,23.000000,,2013-01-16 14:12:00,
2013-01-16 09:33:00,66.0,65.0,30.29,WSW,243,5.0,13.0,95,0.00,,,0.00,194.000000,,2013-01-16 14:33:00,
2013-01-16 09:43:00,66.0,65.0,30.29,WSW,243,5.0,13.0,95,0.00,,,0.00,194.000000,,2013-01-16 14:43:00,
2013-01-16 09:53:00,66.0,65.0,30.29,WSW,243,5.0,13.0,95,0.00,,,0.00,194.000000,,2013-01-16 14:53:00,
2013-01-16 10:03:00,66.0,65.0,30.29,WSW,243,5.0,13.0,95,0.00,,,0.00,194.000000,,2013-01-16 15:03:00,
2013-01-16 10:12:00,66.0,65.0,30.29,WSW,243,5.0,13.0,95,0.00,,,0.00,194.000000,,2013-01-16 15:12:00,
2013-01-16 10:43:00,70.0,65.0,30.29,NE,42,7.0,16.0,85,0.00,,,0.00,221.000000,,2013-01-16 15:43:00,
2013-01-16 10:53:00,70.0,65.0,30.29,NE,42,7.0,16.0,85,0.00,,,0.00,221.000000,,2013-01-16 15:53:00,
2013-01-16 11:04:00,70.0,65.0,30.29,NE,42,7.0,16.0,85,0.00,,,0.00,221.000000,,2013-01-16 16:04:00,
2013-01-16 11:12:00,70.0,65.0,30.29,NE,42,7.0,16.0,85,0.00,,,0.00,221.000000,,2013-01-16 16:12:00,
2013-01-16 11:33:00,75.0,65.0,30.26,WSW,257,9.0,20.0,71,0.00,,,0.00,309.000000,,2013-01-16 16:33:00,
2013-01-16 11:43:00,75.0,65.0,30.26,WSW,257,9.0,20.0,71,0.00,,,0.00,309.000000,,2013-01-16 16:43:00,
2013-01-16 11:53:00,75.0,65.0,30.26,WSW,257,9.0,20.0,71,0.00,,,0.00,309.000000,,2013-01-16 16:53:00,
2013-01-16 12:03:00,75.0,65.0,30.26,WSW,257,9.0,20.0,71,0.00,,,0.00,309.000000,,2013-01-16 17:03:00,
2013-01-16 12:12:00,75.0,65.0,30.26,WSW,257,9.0,20.0,71,0.00,,,0.00,309.000000,,2013-01-16 17:12:00,
2013-01-16 12:33:00,76.0,61.0,30.23,WSW,243,9.0,23.0,59,0.00,,,0.00,524.000000,,2013-01-16 17:33:00,
2013-01-16 12:44:00,76.0,61.0,30.23,WSW,243,9.0,23.0,59,0.00,,,0.00,524.000000,,2013-01-16 17:44:00,
2013-01-16 12:53:00,76.0,61.0,30.23,WSW,243,9.0,23.0,59,0.00,,,0.00,524.000000,,2013-01-16 17:53:00,
2013-01-16 13:03:00,76.0,61.0,30.23,WSW,243,9.0,23.0,59,0.00,,,0.00,524.000000,,2013-01-16 18:03:00,
2013-01-16 13:13:00,76.0,61.0,30.23,WSW,243,9.0,23.0,59,0.00,,,0.00,524.000000,,2013-01-16 18:13:00,
2013-01-16 13:33:00,79.0,61.0,30.21,WSW,238,11.0,27.0,54,0.00,,,0.00,508.000000,,2013-01-16 18:33:00,
2013-01-16 13:43:00,79.0,61.0,30.21,WSW,238,11.0,27.0,54,0.00,,,0.00,508.000000,,2013-01-16 18:43:00,
2013-01-16 13:53:00,79.0,61.0,30.21,WSW,238,11.0,27.0,54,0.00,,,0.00,508.000000,,2013-01-16 18:53:00,
2013-01-16 14:03:00,79.0,61.0,30.21,WSW,238,11.0,27.0,54,0.00,,,0.00,508.000000,,2013-01-16 19:03:00,
2013-01-16 14:13:00,79.0,61.0,30.21,WSW,238,11.0,27.0,54,0.00,,,0.00,508.000000,,2013-01-16 19:13:00,
2013-01-16 14:33:00,80.0,61.0,30.20,WSW,238,10.0,24.0,53,0.00,,,0.00,543.000000,,2013-01-16 19:33:00,
2013-01-16 14:43:00,80.0,61.0,30.20,WSW,238,10.0,24.0,53,0.00,,,0.00,543.000000,,2013-01-16 19:43:00,
2013-01-16 14:53:00,80.0,61.0,30.20,WSW,238,10.0,24.0,53,0.00,,,0.00,543.000000,,2013-01-16 19:53:00,
2013-01-16 15:03:00,80.0,61.0,30.20,WSW,238,10.0,24.0,53,0.00,,,0.00,543.000000,,2013-01-16 20:03:00,
2013-01-16 15:12:00,80.0,61.0,30.20,WSW,238,10.0,24.0,53,0.00,,,0.00,543.000000,,2013-01-16 20:12:00,
2013-01-16 15:43:00,78.0,60.0,30.20,WSW,244,8.0,22.0,54,0.00,,,0.00,514.000000,,2013-01-16 20:43:00,
2013-01-16 15:53:00,78.0,60.0,30.20,WSW,244,8.0,22.0,54,0.00,,,0.00,514.000000,,2013-01-16 20:53:00,
2013-01-16 16:03:00,78.0,60.0,30.20,WSW,244,8.0,22.0,54,0.00,,,0.00,514.000000,,2013-01-16 21:03:00,
2013-01-16 16:12:00,78.0,60.0,30.20,WSW,244,8.0,22.0,54,0.00,,,0.00,514.000000,,2013-01-16 21:12:00,
2013-01-16 16:43:00,76.0,61.0,30.21,SW,228,7.0,17.0,60,0.00,,,0.00,305.000000,,2013-01-16 21:43:00,
2013-01-16 16:53:00,76.0,61.0,30.21,SW,228,7.0,17.0,60,0.00,,,0.00,305.000000,,2013-01-16 21:53:00,
2013-01-16 17:03:00,76.0,61.0,30.21,SW,228,7.0,17.0,60,0.00,,,0.00,305.000000,,2013-01-16 22:03:00,
2013-01-16 17:12:00,76.0,61.0,30.21,SW,228,7.0,17.0,60,0.00,,,0.00,305.000000,,2013-01-16 22:12:00,
2013-01-16 17:33:00,73.0,62.0,30.23,SW,236,5.0,12.0,68,0.00,,,0.00,114.000000,,2013-01-16 22:33:00,
2013-01-16 17:43:00,73.0,62.0,30.23,SW,236,5.0,12.0,68,0.00,,,0.00,114.000000,,2013-01-16 22:43:00,
2013-01-16 17:53:00,73.0,62.0,30.23,SW,236,5.0,12.0,68,0.00,,,0.00,114.000000,,2013-01-16 22:53:00,
2013-01-16 18:03:00,73.0,62.0,30.23,SW,236,5.0,12.0,68,0.00,,,0.00,114.000000,,2013-01-16 23:03:00,
2013-01-16 18:12:00,73.0,62.0,30.23,SW,236,5.0,12.0,68,0.00,,,0.00,114.000000,,2013-01-16 23:12:00,
2013-01-16 18:33:00,62.0,57.0,30.25,NNE,19,5.0,18.0,83,0.00,,,0.00,6.000000,,2013-01-16 23:33:00,
2013-01-16 18:43:00,62.0,57.0,30.25,NNE,19,5.0,18.0,83,0.00,,,0.00,6.000000,,2013-01-16 23:43:00,
2013-01-16 18:53:00,62.0,57.0,30.25,NNE,19,5.0,18.0,83,0.00,,,0.00,6.000000,,2013-01-16 23:53:00,
2013-01-16 19:02:00,62.0,57.0,30.25,NNE,19,5.0,18.0,83,0.00,,,0.00,6.000000,,2013-01-17 00:02:00,
2013-01-16 19:12:00,62.0,57.0,30.25,NNE,19,5.0,18.0,83,0.00,,,0.00,6.000000,,2013-01-17 00:12:00,
2013-01-16 19:33:00,60.0,57.0,30.25,NE,55,2.0,8.0,90,0.00,,,0.00,0.000000,,2013-01-17 00:33:00,
2013-01-16 19:42:00,60.0,57.0,30.25,NE,55,2.0,8.0,90,0.00,,,0.00,0.000000,,2013-01-17 00:42:00,
2013-01-16 19:53:00,60.0,57.0,30.25,NE,55,2.0,8.0,90,0.00,,,0.00,0.000000,,2013-01-17 00:53:00,
2013-01-16 20:02:00,60.0,57.0,30.25,NE,55,2.0,8.0,90,0.00,,,0.00,0.000000,,2013-01-17 01:02:00,
2013-01-16 20:12:00,60.0,57.0,30.25,NE,55,2.0,8.0,90,0.00,,,0.00,0.000000,,2013-01-17 01:12:00,
2013-01-16 20:33:00,57.0,56.0,30.25,ESE,105,2.0,6.0,95,0.00,,,0.00,0.000000,,2013-01-17 01:33:00,
2013-01-16 20:43:00,57.0,56.0,30.25,ESE,105,2.0,6.0,95,0.00,,,0.00,0.000000,,2013-01-17 01:43:00,
2013-01-16 20:53:00,57.0,56.0,30.25,ESE,105,2.0,6.0,95,0.00,,,0.00,0.000000,,2013-01-17 01:53:00,
2013-01-16 21:02:00,57.0,56.0,30.25,ESE,105,2.0,6.0,95,0.00,,,0.00,0.000000,,2013-01-17 02:02:00,
2013-01-16 21:12:00,57.0,56.0,30.25,ESE,105,2.0,6.0,95,0.00,,,0.00,0.000000,,2013-01-17 02:12:00,
2013-01-16 21:32:00,55.0,54.0,30.25,SE,130,4.0,7.0,98,0.00,,,0.00,0.000000,,2013-01-17 02:32:00,
2013-01-16 21:43:00,55.0,54.0,30.25,SE,130,4.0,7.0,98,0.00,,,0.00,0.000000,,2013-01-17 02:43:00,
2013-01-16 21:52:00,55.0,54.0,30.25,SE,130,4.0,7.0,98,0.00,,,0.00,0.000000,,2013-01-17 02:52:00,
2013-01-16 22:03:00,55.0,54.0,30.25,SE,130,4.0,7.0,98,0.00,,,0.00,0.000000,,2013-01-17 03:03:00,
2013-01-16 22:12:00,55.0,54.0,30.25,SE,130,4.0,7.0,98,0.00,,,0.00,0.000000,,2013-01-17 03:12:00,
2013-01-16 22:33:00,57.0,56.0,30.24,SE,133,4.0,7.0,97,0.00,,,0.00,0.000000,,2013-01-17 03:33:00,
2013-01-16 22:43:00,57.0,56.0,30.24,SE,133,4.0,7.0,97,0.00,,,0.00,0.000000,,2013-01-17 03:43:00,
2013-01-16 22:53:00,57.0,56.0,30.24,SE,133,4.0,7.0,97,0.00,,,0.00,0.000000,,2013-01-17 03:53:00,
2013-01-16 23:02:00,57.0,56.0,30.24,SE,133,4.0,7.0,97,0.00,,,0.00,0.000000,,2013-01-17 04:02:00,
2013-01-16 23:12:00,57.0,56.0,30.24,SE,133,4.0,7.0,97,0.00,,,0.00,0.000000,,2013-01-17 04:12:00,
2013-01-16 23:33:00,57.0,57.0,30.22,South,169,4.0,6.0,99,0.00,,,0.00,0.000000,,2013-01-17 04:33:00,
2013-01-16 23:43:00,57.0,57.0,30.22,South,169,4.0,6.0,99,0.00,,,0.00,0.000000,,2013-01-17 04:43:00,
2013-01-16 23:53:00,57.0,57.0,30.22,South,169,4.0,6.0,99,0.00,,,0.00,0.000000,,2013-01-17 04:53:00,